星链-36907(STARLINK-36907)

导读

STARLINK-36907(NORAD编号67940)是美国太空探索技术公司(SpaceX)发射的星链(Starlink)卫星,隶属于星链全球卫星互联网项目。该卫星于2024年12月8日发射,截至2026年4月已在轨飞行约483天,目前状态为正常在轨。 它运行在近地轨道,近地点约355公里,远地点约357公里,轨道倾角43度,绕行周期约91.7分钟,采用星链V1.0平台,配备相控阵天线与氩气离子推进系统,为全球提供高速低延迟卫星互联网接入服务。

基本信息
目录编号:
67940
目录名称:
STARLINK-36907
国际标识:
2026-037J
轨道中心:
EARTH
卫星名称:
星链-36907
卫星全名:
星链-36907(STARLINK-36907)
卫星状态:
在轨 (已飞行199 天)
发射日期:
2026-02-24 UTC
国别 :
美国 (US)
星等 :
--
该卫星已列入 空间交会检测服务 Space Conjunction Data Service (SCDS) ,当前飞行风险评估等级: 无高风险
轨道信息
数据来源 国际轨道数据
星历时间: 2026-09-11T14:23:57+0800
9小时前
查看轨道信息
半长轴: 6861.173km
偏心率: 0.000117
轨道倾角: 42.999°
近地点辐角 257.851°
升交点赤经 222.559°
平近点角 102.222°
近地点: 482.233km
远地点: 483.839km
周期: 94.266分钟
每日圈数: 15.275846
详细信息
固有亮度:
5
最大亮度:
2.5
卫星平台:
Starlink V1.0
覆盖范围:
全球
运营商:
太空探索技术公司
运营商所在国:
美国
制造商(研发单位):
太空探索技术公司
制造商所在国:
美国
使用方式:
暂无
卫星简介
Starlink 计划是 SpaceX 推出的全球卫星互联网项目,通过发射低轨道卫星,为全球尤其是偏远地区提供高速、低延迟的互联网服务。自 2019 年起,Starlink 已部署数千颗卫星,旨在缩小全球数字鸿沟,推动互联网普及。该项目还为军事、航空等行业提供通信支持,带来广泛经济效益。
2D轨道图
3D轨道图
轨道高度分析图
轨道倾角分析图
轨道综合分析图
查看轨道综合分析图
交会数据列表
事件ID 空间交会对象 最接近时刻(TCA) 交会距离 交会风险概率(CRP) 交会风险指数(CRI) 操作
CDM_260912-135406-661306-794021
2026-09-12T
13:54:51+0000
0.915 km
远距离
2.70735E-5 中风险 0.64
CDM_260913-133706-211806-794021
2026-09-13T
13:37:25+0000
1.027 km
极远距离
1.121421E-5 中风险 0.56
CDM_260912-082406-379406-794021
2026-09-12T
08:24:38+0000
1.321 km
极远距离
7.685357E-6 低风险 0.53
CDM_260911-111306-379406-794021
2026-09-11T
11:13:36+0000
1.337 km
极远距离
7.389364E-6 低风险 0.52
CDM_260911-032006-705806-794021
2026-09-11T
03:20:31+0000
1.407 km
极远距离
6.384984E-6 低风险 0.51
CDM_260912-122006-661306-794021
2026-09-12T
12:20:42+0000
1.455 km
极远距离
5.517024E-6 低风险 0.5
CDM_260911-124706-379406-794021
2026-09-11T
12:47:45+0000
1.476 km
极远距离
5.319658E-6 低风险 0.5
CDM_260913-154806-661306-794021
2026-09-13T
15:48:20+0000
1.483 km
极远距离
5.188506E-6 低风险 0.49
CDM_260911-212306-705806-794021
2026-09-11T
21:23:15+0000
1.993 km
极远距离
2.27061E-6 低风险 0.42
CDM_260912-202606-197906-794021
2026-09-12T
20:26:08+0000
1.294 km
极远距离
2.083708E-6 低风险 0.41
与全量物体交会距离演化趋势
与全量物体交会风险概率演化趋势